This is the latest recevied weather packets stored in our database for station/object KF6YUA. If no packets are shown the sender has not sent any weather packets the latest 10 day(s).
| Time | Temp. | Humidity | Pressure | Rain* | Wind** | Luminosity | Snow |
|---|---|---|---|---|---|---|---|
| 1777389524 | 12.22° C | 85% | 1022.8 hPa | 0 mm | - | 176 W/m² | - |
| 1777389220 | 12.22° C | 87% | 1022.4 hPa | 0 mm | - | 146 W/m² | - |
| 1777388918 | 11.11° C | 91% | 1022.6 hPa | 0 mm | - | 114 W/m² | - |
| 1777388614 | 10.56° C | 93% | 1022.6 hPa | 0 mm | - | 104 W/m² | - |
| 1777388311 | 10° C | 95% | 1022.5 hPa | 0 mm | - | 86 W/m² | - |
| 1777388010 | 10° C | 97% | 1022.3 hPa | 0 mm | - | 77 W/m² | - |
| 1777387708 | 8.89° C | 97% | 1022.4 hPa | 0 mm | - | 78 W/m² | - |
| 1777387404 | 9.44° C | 98% | 1022.3 hPa | 0 mm | - | 71 W/m² | - |
| 1777387104 | 9.44° C | 98% | 1022.3 hPa | 0 mm | - | 78 W/m² | - |
| 1777386800 | 8.89° C | 98% | 1022.2 hPa | 0 mm | - | 61 W/m² | - |
| 1777386497 | 9.44° C | 98% | 1022.3 hPa | 0 mm | - | 49 W/m² | - |
| 1777386194 | 10° C | 98% | 1022.1 hPa | 0 mm | - | 50 W/m² | - |
| 1777385892 | 8.89° C | 98% | 1022.2 hPa | 0 mm | - | 42 W/m² | - |
| 1777385588 | 8.33° C | 98% | 1021.6 hPa | 0 mm | - | 37 W/m² | - |
| 1777385286 | 8.89° C | 99% | 1021.4 hPa | 0 mm | - | 32 W/m² | - |
| 1777384981 | 8.33° C | 99% | 1021.4 hPa | 0 mm | - | 27 W/m² | - |
| 1777384679 | 7.78° C | 99% | 1021.4 hPa | 0 mm | - | 21 W/m² | - |
| 1777384378 | 7.22° C | 99% | 1021.3 hPa | 0 mm | - | 20 W/m² | - |
| 1777384074 | 7.22° C | 99% | 1021.2 hPa | 0 mm | - | 16 W/m² | - |
| 1777383770 | 6.67° C | 99% | 1021.2 hPa | 0 mm | - | 10 W/m² | - |
| 1777383467 | 6.67° C | 99% | 1021.2 hPa | 0 mm | - | 6 W/m² | - |
| 1777383163 | 6.67° C | 99% | 1021.4 hPa | 0 mm | - | 2 W/m² | - |
| 1777382860 | 6.67° C | 99% | 1021.4 hPa | 0 mm | - | 1 W/m² | - |
| 1777382555 | 6.67° C | 99% | 1021.1 hPa | 0 mm | - | 5 W/m² | - |
| 1777382252 | 7.22° C | 99% | 1021.4 hPa | 0 mm | - | 0 W/m² | - |
* Rain latest hour (hover to see other rain measurements)
** Current wind speed in m/s (hover to see current wind gust speed)